This demonstration page uses our WeatherBlox Daily Observations layout. Learn more.

Left ArrowRight Arrow

Hourly Observations for February 6, 2016

Temp ( °F °C ) Dew Point ( °F °C ) Humidity (%) Winds ( mph kmh ) Pressure ( in mb ) Visibility ( mi km ) Precip ( " mm )
12:53 am 00:53 Cloudy 43 6.1 27 -2.8 53 53 SW 23 37 29.89 1012 10 16 0.00 0.00
1:53 am 01:53 Mostly Clear 43 6.1 27 -2.8 53 53 SW 14 22 29.87 1011 10 16 0.00 0.00
2:53 am 02:53 Partly Cloudy 43 6.1 27 -2.8 53 53 SW 25 41 29.85 1011 10 16 0.00 0.00
3:53 am 03:53 Clear 42 5.6 27 -2.8 55 55 WSW 21 33 29.84 1010 10 16 0.00 0.00
4:53 am 04:53 Clear 40 4.4 27 -2.8 60 60 WSW 17 28 29.83 1010 10 16 0.00 0.00
5:53 am 05:53 Mostly Clear 41 5 26 -3.3 55 55 WSW 18 30 29.80 1009 10 16 0.00 0.00
6:53 am 06:53 Mostly Clear 43 6.1 26 -3.3 51 51 SW 23 37 29.79 1009 10 16 0.00 0.00
7:53 am 07:53 Mostly Cloudy 40 4.4 29 -1.7 65 65 WSW 25 41 29.81 1010 10 16 0.00 0.03
8:53 am 08:53 Sunny 41 5 30 -1.1 65 65 WSW 37 59 29.73 1007 10 16 0.00 0.00
9:53 am 09:53 Sunny 45 7.2 23 -5 42 42 W 43 69 29.78 1009 10 16 0.00 0.00
10:53 am 10:53 Sunny 46 7.8 20 -6.7 35 35 W 48 78 29.82 1010 10 16 0.00 0.00
11:53 am 11:53 Mostly Cloudy 46 7.8 18 -7.8 32 32 W 51 81 29.85 1011 10 16 0.00 0.00
12:53 pm 12:53 Cloudy 45 7.2 19 -7.2 35 35 W 41 67 29.89 1012 10 16 0.00 0.00
1:53 pm 13:53 Cloudy 46 7.8 17 -8.3 31 31 NW 37 59 29.94 1014 10 16 0.00 0.00
2:53 pm 14:53 Cloudy 39 3.9 31 -0.6 73 73 N 8 13 29.99 1016 10 16 0.00 0.00
3:53 pm 15:53 Cloudy 39 3.9 30 -1.1 70 70 Calm 30.03 1017 10 16 0.00 0.00
4:53 pm 16:53 Cloudy 38 3.3 30 -1.1 73 73 S 8 13 30.05 1018 10 16 0.00 0.00
5:53 pm 17:53 Cloudy 41 5 20 -6.7 43 43 W 24 39 30.06 1018 10 16 0.00 0.00
6:53 pm 18:53 Cloudy 38 3.3 21 -6.1 51 51 W 21 33 30.08 1019 10 16 0.00 0.00
7:53 pm 19:53 Clear 37 2.8 20 -6.7 50 50 WNW 22 35 30.11 1020 10 16 0.00 0.00
8:53 pm 20:53 Mostly Cloudy 36 2.2 19 -7.2 50 50 W 22 35 30.13 1020 10 16 0.00 0.00
9:53 pm 21:53 Partly Cloudy 34 1.1 18 -7.8 52 52 W 23 37 30.14 1021 10 16 0.00 0.00
10:53 pm 22:53 Mostly Cloudy 35 1.7 17 -8.3 48 48 W 24 39 30.17 1022 10 16 0.00 0.00
11:53 pm 23:53 Cloudy 34 1.1 17 -8.3 50 50 W 21 33 30.22 1023 10 16 0.00 0.00

Powered by AerisWeather